#Datum;Uhrzeit;WR;Pac;DaySum;Status;WR;Pac;DaySum;Status;Pdc1;Udc;Temp;WR;Pac;DaySum;Status;Pdc1;Udc;Temp;WR;Pac;DaySum;Status;Pdc1;Udc;Temp;WR;Pac;DaySum;Status;Pdc1;Pdc2;Udc1;Udc2;Temp;WR;Pac;DaySum;Status;Pdc1;Pdc2;Udc1;Udc2;Temp;WR;Pac;DaySum;Status;Pdc1;Udc;Temp;WR;Pac;DaySum;Status;Pdc1;Udc;Temp;WR;Pac;DaySum;Status;Pdc1;Udc;Temp
20.02.21;23:55:00;1;607;23861;0;2;0;21946;0;0;0;0;3;0;14134;0;0;0;0;4;0;20012;0;0;0;0;5;0;0;0;0;0;0;0;0;6;0;38788;0;0;0;0;0;0;7;0;34853;0;0;0;0;8;0;34081;0;0;0;0;9;0;18431;0;0;0;0
20.02.21;23:50:00;1;636;23810;0;2;0;21946;0;0;0;0;3;0;14134;0;0;0;0;4;0;20012;0;0;0;0;5;0;0;0;0;0;0;0;0;6;0;38788;0;0;0;0;0;0;7;0;34853;0;0;0;0;8;0;34081;0;0;0;0;9;0;18431;0;0;0;0
20.02.21;23:45:00;1;529;23758;0;2;0;21946;0;0;0;0;3;0;14134;0;0;0;0;4;0;20012;0;0;0;0;5;0;0;0;0;0;0;0;0;6;0;38788;0;0;0;0;0;0;7;0;34853;0;0;0;0;8;0;34081;0;0;0;0;9;0;18431;0;0;0;0
20.02.21;23:40:00;1;550;23715;0;2;0;21946;0;0;0;0;3;0;14134;0;0;0;0;4;0;20012;0;0;0;0;5;0;0;0;0;0;0;0;0;6;0;38788;0;0;0;0;0;0;7;0;34853;0;0;0;0;8;0;34081;0;0;0;0;9;0;18431;0;0;0;0
20.02.21;23:35:00;1;552;23669;0;2;0;21946;0;0;0;0;3;0;14134;0;0;0;0;4;0;20012;0;0;0;0;5;0;0;0;0;0;0;0;0;6;0;38788;0;0;0;0;0;0;7;0;34853;0;0;0;0;8;0;34081;0;0;0;0;9;0;18431;0;0;0;0
20.02.21;23:30:00;1;570;23622;0;2;0;21946;0;0;0;0;3;0;14134;0;0;0;0;4;0;20012;0;0;0;0;5;0;0;0;0;0;0;0;0;6;0;38788;0;0;0;0;0;0;7;0;34853;0;0;0;0;8;0;34081;0;0;0;0;9;0;18431;0;0;0;0
20.02.21;23:25:00;1;533;23575;0;2;0;21946;0;0;0;0;3;0;14134;0;0;0;0;4;0;20012;0;0;0;0;5;0;0;0;0;0;0;0;0;6;0;38788;0;0;0;0;0;0;7;0;34853;0;0;0;0;8;0;34081;0;0;0;0;9;0;18431;0;0;0;0
20.02.21;23:20:00;1;581;23531;0;2;0;21946;0;0;0;0;3;0;14134;0;0;0;0;4;0;20012;0;0;0;0;5;0;0;0;0;0;0;0;0;6;0;38788;0;0;0;0;0;0;7;0;34853;0;0;0;0;8;0;34081;0;0;0;0;9;0;18431;0;0;0;0
20.02.21;23:15:00;1;523;23482;0;2;0;21946;0;0;0;0;3;0;14134;0;0;0;0;4;0;20012;0;0;0;0;5;0;0;0;0;0;0;0;0;6;0;38788;0;0;0;0;0;0;7;0;34853;0;0;0;0;8;0;34081;0;0;0;0;9;0;18431;0;0;0;0
20.02.21;23:10:00;1;485;23438;0;2;0;21946;0;0;0;0;3;0;14134;0;0;0;0;4;0;20012;0;0;0;0;5;0;0;0;0;0;0;0;0;6;0;38788;0;0;0;0;0;0;7;0;34853;0;0;0;0;8;0;34081;0;0;0;0;9;0;18431;0;0;0;0
20.02.21;23:05:00;1;493;23398;0;2;0;21946;0;0;0;0;3;0;14134;0;0;0;0;4;0;20012;0;0;0;0;5;0;0;0;0;0;0;0;0;6;0;38788;0;0;0;0;0;0;7;0;34853;0;0;0;0;8;0;34081;0;0;0;0;9;0;18431;0;0;0;0
20.02.21;23:00:00;1;497;23357;0;2;0;21946;0;0;0;0;3;0;14134;0;0;0;0;4;0;20012;0;0;0;0;5;0;0;0;0;0;0;0;0;6;0;38788;0;0;0;0;0;0;7;0;34853;0;0;0;0;8;0;34081;0;0;0;0;9;0;18431;0;0;0;0
20.02.21;22:55:00;1;545;23315;0;2;0;21946;0;0;0;0;3;0;14134;0;0;0;0;4;0;20012;0;0;0;0;5;0;0;0;0;0;0;0;0;6;0;38788;2;0;0;0;0;0;7;0;34853;0;0;0;0;8;0;34081;0;0;0;0;9;0;18431;0;0;0;0
20.02.21;22:50:00;1;585;23270;0;2;0;21946;0;0;0;0;3;0;14134;0;0;0;0;4;0;20012;0;0;0;0;5;0;0;0;0;0;0;0;0;6;0;38788;2;0;0;0;0;0;7;0;34853;0;0;0;0;8;0;34081;0;0;0;0;9;0;18431;0;0;0;0
20.02.21;22:45:00;1;515;23223;0;2;0;21946;0;0;0;0;3;0;14134;0;0;0;0;4;0;20012;0;0;0;0;5;0;0;0;0;0;0;0;0;6;0;38788;2;0;0;0;0;0;7;0;34853;0;0;0;0;8;0;34081;0;0;0;0;9;0;18431;0;0;0;0
20.02.21;22:40:00;1;566;23179;0;2;0;21946;0;0;0;0;3;0;14134;0;0;0;0;4;0;20012;0;0;0;0;5;0;0;0;0;0;0;0;0;6;0;38788;2;0;0;0;0;0;7;0;34853;0;0;0;0;8;0;34081;0;0;0;0;9;0;18431;0;0;0;0
20.02.21;22:35:00;1;614;23132;0;2;0;21946;0;0;0;0;3;0;14134;0;0;0;0;4;0;20012;0;0;0;0;5;0;0;0;0;0;0;0;0;6;0;38788;2;0;0;0;0;0;7;0;34853;0;0;0;0;8;0;34081;0;0;0;0;9;0;18431;0;0;0;0
20.02.21;22:30:00;1;616;23081;0;2;0;21946;0;0;0;0;3;0;14134;0;0;0;0;4;0;20012;0;0;0;0;5;0;0;0;0;0;0;0;0;6;0;38788;2;0;0;0;0;0;7;0;34853;0;0;0;0;8;0;34081;0;0;0;0;9;0;18431;0;0;0;0
20.02.21;22:25:00;1;559;23029;0;2;0;21946;0;0;0;0;3;0;14134;0;0;0;0;4;0;20012;0;0;0;0;5;0;0;0;0;0;0;0;0;6;0;38788;2;0;0;0;0;0;7;0;34853;0;0;0;0;8;0;34081;0;0;0;0;9;0;18431;0;0;0;0
20.02.21;22:20:00;1;618;22982;0;2;0;21946;0;0;0;0;3;0;14134;0;0;0;0;4;0;20012;0;0;0;0;5;0;0;0;0;0;0;0;0;6;0;38788;2;0;0;0;0;0;7;0;34853;0;0;0;0;8;0;34081;0;0;0;0;9;0;18431;0;0;0;0
20.02.21;22:15:00;1;567;22930;0;2;0;21946;0;0;0;0;3;0;14134;0;0;0;0;4;0;20012;0;0;0;0;5;0;0;0;0;0;0;0;0;6;0;38788;2;0;0;0;0;0;7;0;34853;0;0;0;0;8;0;34081;0;0;0;0;9;0;18431;0;0;0;0
20.02.21;22:10:00;1;544;22883;0;2;0;21946;0;0;0;0;3;0;14134;0;0;0;0;4;0;20012;0;0;0;0;5;0;0;0;0;0;0;0;0;6;0;38788;2;0;0;0;0;0;7;0;34853;0;0;0;0;8;0;34081;0;0;0;0;9;0;18431;0;0;0;0
20.02.21;22:05:00;1;493;22837;0;2;0;21946;0;0;0;0;3;0;14134;0;0;0;0;4;0;20012;0;0;0;0;5;0;0;0;0;0;0;0;0;6;0;38788;2;0;0;0;0;0;7;0;34853;0;0;0;0;8;0;34081;0;0;0;0;9;0;18431;0;0;0;0
20.02.21;22:00:00;1;529;22794;0;2;0;21946;0;0;0;0;3;0;14134;0;0;0;0;4;0;20012;0;0;0;0;5;0;0;0;0;0;0;0;0;6;0;38788;2;0;0;0;0;0;7;0;34853;0;0;0;0;8;0;34081;0;0;0;0;9;0;18431;0;0;0;0
20.02.21;21:55:00;1;465;22749;0;2;0;21946;0;0;0;0;3;0;14134;0;0;0;0;4;0;20012;0;0;0;0;5;0;0;0;0;0;0;0;0;6;0;38788;2;0;0;0;0;0;7;0;34853;0;0;0;0;8;0;34081;0;0;0;0;9;0;18431;0;0;0;0
20.02.21;21:50:00;1;447;22710;0;2;0;21946;0;0;0;0;3;0;14134;0;0;0;0;4;0;20012;0;0;0;0;5;0;0;0;0;0;0;0;0;6;0;38788;2;0;0;0;0;0;7;0;34853;0;0;0;0;8;0;34081;0;0;0;0;9;0;18431;0;0;0;0
20.02.21;21:45:00;1;550;22671;0;2;0;21946;0;0;0;0;3;0;14134;0;0;0;0;4;0;20012;0;0;0;0;5;0;0;0;0;0;0;0;0;6;0;38788;2;0;0;0;0;0;7;0;34853;0;0;0;0;8;0;34081;0;0;0;0;9;0;18431;0;0;0;0
20.02.21;21:40:00;1;575;22625;0;2;0;21946;0;0;0;0;3;0;14134;0;0;0;0;4;0;20012;0;0;0;0;5;0;0;0;0;0;0;0;0;6;0;38788;2;0;0;0;0;0;7;0;34853;0;0;0;0;8;0;34081;0;0;0;0;9;0;18431;0;0;0;0
20.02.21;21:35:00;1;527;22578;0;2;0;21946;0;0;0;0;3;0;14134;0;0;0;0;4;0;20012;0;0;0;0;5;0;0;0;0;0;0;0;0;6;0;38788;2;0;0;0;0;0;7;0;34853;0;0;0;0;8;0;34081;0;0;0;0;9;0;18431;0;0;0;0
20.02.21;21:30:00;1;445;22533;0;2;0;21946;0;0;0;0;3;0;14134;0;0;0;0;4;0;20012;0;0;0;0;5;0;0;0;0;0;0;0;0;6;0;38788;2;0;0;0;0;0;7;0;34853;0;0;0;0;8;0;34081;0;0;0;0;9;0;18431;0;0;0;0
20.02.21;21:25:00;1;449;22496;0;2;0;21946;0;0;0;0;3;0;14134;0;0;0;0;4;0;20012;0;0;0;0;5;0;0;0;0;0;0;0;0;6;0;38788;2;0;0;0;0;0;7;0;34853;0;0;0;0;8;0;34081;0;0;0;0;9;0;18431;0;0;0;0
20.02.21;21:20:00;1;463;22459;0;2;0;21946;0;0;0;0;3;0;14134;0;0;0;0;4;0;20012;0;0;0;0;5;0;0;0;0;0;0;0;0;6;0;38788;2;0;0;0;0;0;7;0;34853;0;0;0;0;8;0;34081;0;0;0;0;9;0;18431;0;0;0;0
20.02.21;21:15:00;1;454;22420;0;2;0;21946;0;0;0;0;3;0;14134;0;0;0;0;4;0;20012;0;0;0;0;5;0;0;0;0;0;0;0;0;6;0;38788;2;0;0;0;0;0;7;0;34853;0;0;0;0;8;0;34081;0;0;0;0;9;0;18431;0;0;0;0
20.02.21;21:10:00;1;405;22382;0;2;0;21946;0;0;0;0;3;0;14134;0;0;0;0;4;0;20012;0;0;0;0;5;0;0;0;0;0;0;0;0;6;0;38788;2;0;0;0;0;0;7;0;34853;0;0;0;0;8;0;34081;0;0;0;0;9;0;18431;0;0;0;0
20.02.21;21:05:00;1;366;22348;0;2;0;21946;0;0;0;0;3;0;14134;0;0;0;0;4;0;20012;0;0;0;0;5;0;0;0;0;0;0;0;0;6;0;38788;2;0;0;0;0;0;7;0;34853;0;0;0;0;8;0;34081;0;0;0;0;9;0;18431;0;0;0;0
20.02.21;21:00:00;1;416;22318;0;2;0;21946;0;0;0;0;3;0;14134;0;0;0;0;4;0;20012;0;0;0;0;5;0;0;0;0;0;0;0;0;6;0;38788;2;0;0;0;0;0;7;0;34853;0;0;0;0;8;0;34081;0;0;0;0;9;0;18431;0;0;0;0
20.02.21;20:55:00;1;470;22284;0;2;0;21946;0;0;0;0;3;0;14134;0;0;0;0;4;0;20012;0;0;0;0;5;0;0;0;0;0;0;0;0;6;0;38788;2;0;0;0;0;0;7;0;34853;0;0;0;0;8;0;34081;0;0;0;0;9;0;18431;0;0;0;0
20.02.21;20:50:00;1;567;22245;0;2;0;21946;0;0;0;0;3;0;14134;0;0;0;0;4;0;20012;0;0;0;0;5;0;0;0;0;0;0;0;0;6;0;38788;2;0;0;0;0;0;7;0;34853;0;0;0;0;8;0;34081;0;0;0;0;9;0;18431;0;0;0;0
20.02.21;20:45:00;1;685;22199;0;2;0;21946;0;0;0;0;3;0;14134;0;0;0;0;4;0;20012;0;0;0;0;5;0;0;0;0;0;0;0;0;6;0;38788;2;0;0;0;0;0;7;0;34853;0;0;0;0;8;0;34081;0;0;0;0;9;0;18431;0;0;0;0
20.02.21;20:40:00;1;651;22141;0;2;0;21946;0;0;0;0;3;0;14134;0;0;0;0;4;0;20012;0;0;0;0;5;0;0;0;0;0;0;0;0;6;0;38788;2;0;0;0;0;0;7;0;34853;0;0;0;0;8;0;34081;0;0;0;0;9;0;18431;0;0;0;0
20.02.21;20:35:00;1;718;22087;0;2;0;21946;0;0;0;0;3;0;14134;0;0;0;0;4;0;20012;0;0;0;0;5;0;0;0;0;0;0;0;0;6;0;38788;2;0;0;0;0;0;7;0;34853;0;0;0;0;8;0;34081;0;0;0;0;9;0;18431;0;0;0;0
20.02.21;20:30:00;1;775;22027;0;2;0;21946;0;0;0;0;3;0;14134;0;0;0;0;4;0;20012;0;0;0;0;5;0;0;0;0;0;0;0;0;6;0;38788;2;0;0;0;0;0;7;0;34853;0;0;0;0;8;0;34081;0;0;0;0;9;0;18431;0;0;0;0
20.02.21;20:25:00;1;676;21963;0;2;0;21946;0;0;0;0;3;0;14134;0;0;0;0;4;0;20012;0;0;0;0;5;0;0;0;0;0;0;0;0;6;0;38788;2;0;0;0;0;0;7;0;34853;0;0;0;0;8;0;34081;0;0;0;0;9;0;18431;0;0;0;0
20.02.21;20:20:00;1;633;21906;0;2;0;21946;0;0;0;0;3;0;14134;0;0;0;0;4;0;20012;0;0;0;0;5;0;0;0;0;0;0;0;0;6;0;38788;2;0;0;0;0;0;7;0;34853;0;0;0;0;8;0;34081;0;0;0;0;9;0;18431;0;0;0;0
20.02.21;20:15:00;1;641;21853;0;2;0;21946;0;0;0;0;3;0;14134;0;0;0;0;4;0;20012;0;0;0;0;5;0;0;0;0;0;0;0;0;6;0;38788;2;0;0;0;0;0;7;0;34853;0;0;0;0;8;0;34081;0;0;0;0;9;0;18431;0;0;0;0
20.02.21;20:10:00;1;626;21800;0;2;0;21946;0;0;0;0;3;0;14134;0;0;0;0;4;0;20012;0;0;0;0;5;0;0;0;0;0;0;0;0;6;0;38788;2;0;0;0;0;0;7;0;34853;0;0;0;0;8;0;34081;0;0;0;0;9;0;18431;0;0;0;0
20.02.21;20:05:00;1;604;21747;0;2;0;21946;0;0;0;0;3;0;14134;0;0;0;0;4;0;20012;0;0;0;0;5;0;0;0;0;0;0;0;0;6;0;38788;2;0;0;0;0;0;7;0;34853;0;0;0;0;8;0;34081;0;0;0;0;9;0;18431;0;0;0;0
20.02.21;20:00:00;1;603;21697;0;2;0;21946;0;0;0;0;3;0;14134;0;0;0;0;4;0;20012;0;0;0;0;5;0;0;0;0;0;0;0;0;6;0;38788;2;0;0;0;0;0;7;0;34853;0;0;0;0;8;0;34081;0;0;0;0;9;0;18431;0;0;0;0
20.02.21;19:55:00;1;610;21646;0;2;0;21946;0;0;0;0;3;0;14134;0;0;0;0;4;0;20012;0;0;0;0;5;0;0;0;0;0;0;0;0;6;0;38788;2;0;0;0;0;0;7;0;34853;0;0;0;0;8;0;34081;0;0;0;0;9;0;18431;0;0;0;0
20.02.21;19:50:00;1;608;21596;0;2;0;21946;0;0;0;0;3;0;14134;0;0;0;0;4;0;20012;0;0;0;0;5;0;0;0;0;0;0;0;0;6;0;38788;2;0;0;0;0;0;7;0;34853;0;0;0;0;8;0;34081;0;0;0;0;9;0;18431;0;0;0;0
20.02.21;19:45:00;1;701;21545;0;2;0;21946;0;0;0;0;3;0;14134;0;0;0;0;4;0;20012;0;0;0;0;5;0;0;0;0;0;0;0;0;6;0;38788;2;0;0;0;0;0;7;0;34853;0;0;0;0;8;0;34081;0;0;0;0;9;0;18431;0;0;0;0
20.02.21;19:40:00;1;742;21487;0;2;0;21946;0;0;0;0;3;0;14134;0;0;0;0;4;0;20012;0;0;0;0;5;0;0;0;0;0;0;0;0;6;0;38788;2;0;0;0;0;0;7;0;34853;0;0;0;0;8;0;34081;0;0;0;0;9;0;18431;0;0;0;0
20.02.21;19:35:00;1;673;21424;0;2;0;21946;0;0;0;0;3;0;14134;0;0;0;0;4;0;20012;0;0;0;0;5;0;0;0;0;0;0;0;0;6;0;38788;0;0;0;0;0;0;7;0;34853;0;0;0;0;8;0;34081;0;0;0;0;9;0;18431;0;0;0;0
20.02.21;19:30:00;1;651;21368;0;2;0;21946;0;0;0;0;3;0;14134;0;0;0;0;4;0;20012;0;0;0;0;5;0;0;0;0;0;0;0;0;6;0;38788;2;0;0;0;0;0;7;0;34853;0;0;0;0;8;0;34081;0;0;0;0;9;0;18431;0;0;0;0
20.02.21;19:25:00;1;684;21313;0;2;0;21946;0;0;0;0;3;0;14134;0;0;0;0;4;0;20012;0;0;0;0;5;0;0;0;0;0;0;0;0;6;0;38788;2;0;0;0;0;0;7;0;34853;0;0;0;0;8;0;34081;0;0;0;0;9;0;18431;0;0;0;0
20.02.21;19:20:00;1;1780;21256;0;2;0;21946;0;0;0;0;3;0;14134;0;0;0;0;4;0;20012;0;0;0;0;5;0;0;0;0;0;0;0;0;6;0;38788;2;0;0;0;0;0;7;0;34853;0;0;0;0;8;0;34081;0;0;0;0;9;0;18431;0;0;0;0
20.02.21;19:15:00;1;2600;21114;0;2;0;21946;0;0;0;0;3;0;14134;0;0;0;0;4;0;20012;0;0;0;0;5;0;0;0;0;0;0;0;0;6;0;38788;2;0;0;0;0;0;7;0;34853;0;0;0;0;8;0;34081;0;0;0;0;9;0;18431;0;0;0;0
20.02.21;19:10:00;1;2618;20899;0;2;0;21946;0;0;0;0;3;0;14134;0;0;0;0;4;0;20012;0;0;0;0;5;0;0;0;0;0;0;0;0;6;0;38788;2;0;0;0;0;0;7;0;34853;0;0;0;0;8;0;34081;0;0;0;0;9;0;18431;0;0;0;0
20.02.21;19:05:00;1;2504;20684;0;2;0;21946;0;0;0;0;3;0;14134;0;0;0;0;4;0;20012;0;0;0;0;5;0;0;0;0;0;0;0;0;6;0;38788;2;0;0;0;0;0;7;0;34853;0;0;0;0;8;0;34081;0;0;0;0;9;0;18431;0;0;0;0
20.02.21;19:00:00;1;1464;20477;0;2;0;21946;0;0;0;0;3;0;14134;0;0;0;0;4;0;20012;0;0;0;0;5;0;0;0;0;0;0;0;0;6;0;38788;2;0;0;0;0;0;7;0;34853;0;0;0;0;8;0;34081;0;0;0;0;9;0;18431;0;0;0;0
20.02.21;18:55:00;1;660;20345;0;2;0;21946;0;0;0;0;3;0;14134;0;0;0;0;4;0;20012;0;0;0;0;5;0;0;0;0;0;0;0;0;6;0;38788;2;0;0;0;0;0;7;0;34853;0;0;0;0;8;0;34081;0;0;0;0;9;0;18431;0;0;0;0
20.02.21;18:50:00;1;690;20289;0;2;0;21946;0;0;0;0;3;0;14134;0;0;0;0;4;0;20012;0;0;0;0;5;0;0;0;0;0;0;0;0;6;0;38788;2;0;0;0;0;0;7;0;34853;0;0;0;0;8;0;34081;0;0;0;0;9;0;18431;0;0;0;0
20.02.21;18:45:00;1;701;20228;0;2;0;21946;0;0;0;0;3;0;14134;0;0;0;0;4;0;20012;0;0;0;0;5;0;0;0;0;0;0;0;0;6;0;38788;2;0;0;0;0;0;7;0;34853;0;0;0;0;8;0;34081;0;0;0;0;9;0;18431;0;0;0;0
20.02.21;18:40:00;1;765;20170;0;2;0;21946;0;0;0;0;3;0;14134;0;0;0;0;4;0;20012;0;0;0;0;5;0;0;0;0;0;0;0;0;6;0;38788;2;0;0;0;0;0;7;0;34853;0;0;0;0;8;0;34081;0;0;0;0;9;0;18431;0;0;0;0
20.02.21;18:35:00;1;683;20106;0;2;0;21946;0;0;0;0;3;0;14134;0;0;0;0;4;0;20012;0;0;0;0;5;0;0;0;0;0;0;0;0;6;0;38788;2;0;0;0;0;0;7;0;34853;0;0;0;0;8;0;34081;0;0;0;0;9;0;18431;0;0;0;0
20.02.21;18:30:00;1;663;20048;0;2;0;21946;0;0;0;0;3;0;14134;0;0;0;0;4;0;20012;0;0;0;0;5;0;0;0;0;0;0;0;0;6;0;38788;2;0;0;0;0;0;7;0;34853;0;0;0;0;8;0;34081;0;0;0;0;9;0;18431;0;0;0;0
20.02.21;18:25:00;1;1679;19993;0;2;0;21946;0;0;0;0;3;0;14134;0;0;0;0;4;0;20012;0;0;0;0;5;0;0;0;0;0;0;0;0;6;0;38788;2;0;0;0;0;0;7;0;34853;0;0;0;0;8;0;34081;0;0;0;0;9;0;18431;0;0;0;0
20.02.21;18:20:00;1;2546;19857;0;2;0;21946;0;0;0;0;3;0;14134;0;0;0;0;4;0;20012;0;0;0;0;5;0;0;0;0;0;0;0;0;6;0;38788;2;0;0;0;0;0;7;0;34853;0;0;0;0;8;0;34081;0;0;0;0;9;0;18431;0;0;0;0
20.02.21;18:15:00;1;2514;19645;0;2;0;21946;0;0;0;0;3;0;14134;0;0;0;0;4;0;20012;0;0;0;0;5;0;0;0;0;0;0;0;0;6;0;38788;2;0;0;0;0;0;7;0;34853;0;0;0;0;8;0;34081;0;0;0;0;9;0;18431;0;0;0;0
20.02.21;18:10:00;1;1984;19425;0;2;0;21946;0;0;0;0;3;0;14134;0;0;0;0;4;0;20012;0;0;0;0;5;0;0;0;0;0;0;0;0;6;0;38788;2;0;0;0;0;0;7;0;34853;0;0;0;0;8;0;34081;0;0;0;0;9;0;18431;0;0;0;0
20.02.21;18:05:00;1;721;19258;0;2;0;21946;0;0;0;0;3;0;14134;0;0;0;0;4;0;20012;0;0;0;0;5;0;0;0;0;0;0;0;0;6;0;38788;2;0;0;0;0;0;7;0;34853;0;0;0;0;8;0;34081;0;0;0;0;9;0;18431;0;0;0;0
20.02.21;18:00:00;1;725;19196;0;2;0;21946;0;0;83;6;3;0;14134;0;0;183;13;4;0;20012;0;0;0;0;5;0;0;0;0;0;0;0;0;6;0;38788;2;0;0;0;0;0;7;0;34853;0;0;0;0;8;0;34081;0;0;0;0;9;0;18431;0;0;0;0
20.02.21;17:55:00;1;724;19132;0;2;0;21946;6;0;297;18;3;0;14134;6;0;344;20;4;0;20012;0;0;63;17;5;0;0;0;0;0;0;0;0;6;0;38788;0;0;0;0;0;0;7;0;34853;0;0;0;0;8;0;34081;0;0;0;0;9;0;18431;0;0;0;0
20.02.21;17:50:00;1;686;19072;0;2;0;21946;6;0;344;19;3;0;14134;6;2;413;20;4;0;20012;1;0;123;20;5;0;0;0;0;0;0;0;0;6;0;38788;1;14;3;143;329;23;7;0;34853;0;0;231;20;8;0;34081;0;0;226;19;9;0;18431;0;0;231;15
20.02.21;17:45:00;1;665;19014;0;2;0;21946;6;0;379;19;3;0;14134;6;0;471;21;4;0;20012;1;0;184;21;5;0;0;0;0;0;0;0;0;6;0;38788;23;10;0;181;527;29;7;0;34853;6;0;380;25;8;0;34081;6;0;374;24;9;0;18431;6;0;381;19
20.02.21;17:40:00;1;686;18959;0;2;0;21946;6;0;398;20;3;1;14134;3;3;481;21;4;0;20012;3;0;208;22;5;0;0;0;0;0;0;0;0;6;0;38788;23;10;0;182;559;29;7;0;34853;6;2;421;26;8;0;34081;3;0;424;25;9;0;18431;6;1;429;20
20.02.21;17:35:00;1;598;18901;0;2;21;21946;6;37;385;21;3;3;14134;6;8;509;22;4;0;20012;3;0;199;22;5;0;0;0;0;0;0;0;0;6;0;38788;23;4;3;532;579;30;7;3;34853;6;10;441;26;8;0;34081;6;7;457;25;9;0;18431;6;2;495;20
20.02.21;17:30:00;1;557;18848;0;2;90;21945;4;125;358;22;3;20;14133;6;31;506;22;4;32;20012;3;33;198;23;5;0;0;0;0;0;0;0;0;6;56;38788;4;26;21;451;220;31;7;32;34853;6;63;404;27;8;10;34081;6;22;448;26;9;2;18431;6;4;520;21
20.02.21;17:25:00;1;570;18801;0;2;205;21937;4;241;354;23;3;115;14131;4;148;399;23;4;139;20009;5;144;223;23;5;0;0;0;0;0;0;0;0;6;82;38783;4;51;36;451;220;32;7;87;34850;4;125;421;27;8;61;34080;4;94;395;27;9;6;18431;3;12;519;21
20.02.21;17:20:00;1;561;18753;0;2;291;21920;4;329;356;23;3;169;14122;4;206;406;24;4;216;19997;5;225;224;24;5;0;0;0;0;0;0;0;0;6;108;38775;4;65;44;451;220;32;7;203;34843;4;236;407;28;8;97;34074;4;136;438;27;9;6;18430;6;13;540;22
20.02.21;17:15:00;1;562;18706;0;2;403;21896;4;450;388;24;3;269;14108;4;307;415;24;4;348;19979;5;363;212;24;5;0;0;0;0;0;0;0;0;6;153;38766;4;93;54;451;220;32;7;359;34826;4;392;366;28;8;145;34067;4;191;458;27;9;7;18429;6;11;558;22
20.02.21;17:10:00;1;565;18659;0;2;433;21862;4;483;410;25;3;281;14085;4;325;433;24;4;431;19951;5;449;214;24;5;0;0;0;0;0;0;0;0;6;192;38753;4;119;69;451;220;32;7;543;34796;4;584;396;29;8;201;34054;4;245;452;28;9;31;18429;6;46;522;23
20.02.21;17:05:00;1;626;18612;0;2;443;21826;4;494;412;26;3;239;14062;4;281;432;25;4;392;19914;5;408;228;25;5;0;0;0;0;0;0;0;0;6;211;38737;4;120;84;451;256;32;7;583;34750;4;631;452;29;8;245;34037;4;285;479;28;9;57;18426;4;90;445;24
20.02.21;17:00:00;1;629;18559;0;2;471;21788;4;518;387;27;3;279;14041;4;319;414;25;4;366;19880;5;381;238;25;5;0;0;0;0;0;0;0;0;6;306;38719;4;138;163;488;488;32;7;575;34700;4;629;466;30;8;286;34017;4;340;478;29;9;70;18421;4;104;471;24
20.02.21;16:55:00;1;508;18507;0;2;760;21749;4;813;355;28;3;462;14018;4;511;426;26;4;533;19849;5;555;223;26;5;0;0;0;0;0;0;0;0;6;505;38691;4;235;262;585;558;32;7;986;34652;4;1047;473;30;8;466;33993;4;513;484;29;9;94;18415;4;130;500;25
20.02.21;16:50:00;1;436;18458;0;2;916;21687;4;977;355;29;3;554;13980;4;607;433;27;4;629;19806;5;655;228;26;5;0;0;0;0;0;0;0;0;6;628;38649;4;323;350;585;559;32;7;1247;34571;4;1318;482;31;8;638;33955;4;691;446;30;9;110;18407;4;147;512;25
20.02.21;16:45:00;1;506;18421;0;2;1033;21611;4;1096;361;30;3;623;13934;4;676;418;27;4;723;19753;5;753;242;27;5;0;0;0;0;0;0;0;0;6;740;38597;4;365;390;586;561;33;7;1380;34467;4;1458;475;31;8;835;33901;4;888;398;31;9;133;18398;4;165;472;26
20.02.21;16:40:00;1;586;18377;0;2;797;21526;4;854;357;30;3;456;13883;4;505;420;27;4;571;19694;5;595;240;27;5;0;0;0;0;0;0;0;0;6;627;38535;4;303;328;582;555;33;7;1036;34355;4;1110;467;32;8;787;33835;4;842;419;31;9;115;18387;4;144;382;27
20.02.21;16:35:00;1;546;18332;0;2;1306;21459;4;1384;381;32;3;735;13845;4;794;422;28;4;843;19646;5;878;218;27;5;0;0;0;0;0;0;0;0;6;983;38480;4;490;499;594;563;33;7;1643;34269;4;1735;478;33;8;1417;33769;4;1498;440;32;9;163;18378;4;195;355;28
20.02.21;16:30:00;1;471;18285;0;2;1663;21355;4;1751;391;33;3;922;13785;4;983;419;28;4;1012;19578;5;1054;204;28;5;0;0;0;0;0;0;0;0;6;1239;38398;4;620;637;599;572;33;7;2095;34138;4;2208;486;33;8;1923;33656;4;2017;456;33;9;370;18364;4;407;351;29
20.02.21;16:25:00;1;437;18245;0;2;1371;21216;4;1451;385;34;3;750;13709;4;806;417;29;4;816;19494;5;850;213;28;5;0;0;0;0;0;0;0;0;6;1091;38296;4;530;532;589;564;33;7;1702;33961;4;1794;474;34;8;1604;33493;4;1690;466;33;9;493;18333;4;535;353;30
20.02.21;16:20:00;1;403;18208;0;2;1703;21103;4;1796;386;35;3;932;13646;4;996;423;29;4;1025;19426;5;1068;216;28;5;0;0;0;0;0;0;0;0;6;1386;38206;4;687;687;597;567;34;7;2165;33820;4;2273;480;34;8;2082;33359;4;2191;474;34;9;733;18292;4;784;358;31
20.02.21;16:15:00;1;404;18175;0;2;1920;20962;4;2025;386;36;3;1061;13569;4;1127;425;30;4;1109;19341;5;1154;204;29;5;0;0;0;0;0;0;0;0;6;1635;38089;4;797;814;594;566;34;7;2462;33639;4;2583;477;34;8;2391;33186;4;2510;475;34;9;951;18231;4;1010;392;32
20.02.21;16:10:00;1;1507;18141;0;2;2152;20803;4;2268;378;37;3;1221;13482;4;1291;416;30;4;1208;19249;5;1258;199;29;5;0;0;0;0;0;0;0;0;6;1938;37951;4;987;992;594;571;34;7;2858;33437;4;3012;478;35;8;2790;32990;4;2932;471;34;9;1226;18153;4;1304;446;33
20.02.21;16:05:00;1;769;18003;0;2;2322;20623;4;2448;389;38;3;1322;13379;4;1398;422;31;4;1187;19148;5;1236;200;29;5;0;0;0;0;0;0;0;0;6;2125;37787;4;1083;1086;595;567;34;7;3077;33195;4;3228;475;35;8;2970;32752;4;3155;470;35;9;1472;18049;4;1565;481;34
20.02.21;16:00:00;1;491;17909;0;2;2472;20431;4;2604;385;39;3;1370;13269;4;1447;418;31;4;1177;19049;5;1226;208;30;5;0;0;0;0;0;0;0;0;6;2270;37609;4;1154;1134;595;573;34;7;3145;32942;4;3302;473;36;8;3066;32507;4;3219;467;35;9;1572;17927;4;1672;498;35
20.02.21;15:55:00;1;444;17870;0;2;2533;20225;4;2668;381;39;3;1389;13155;4;1468;420;32;4;1172;18951;5;1220;209;30;5;0;0;0;0;0;0;0;0;6;2394;37418;4;1220;1210;596;572;35;7;3267;32677;4;3428;471;36;8;3196;32249;4;3350;470;35;9;1692;17796;4;1801;511;36
20.02.21;15:50:00;1;446;17832;0;2;2498;20014;4;2636;387;40;3;1370;13039;4;1450;416;32;4;1146;18853;5;1194;204;31;5;0;0;0;0;0;0;0;0;6;2443;37218;4;1254;1247;594;566;35;7;3202;32405;4;3370;471;36;8;3141;31983;4;3296;468;36;9;1691;17654;4;1801;524;36
20.02.21;15:45:00;1;2096;17784;0;2;2621;19805;4;2763;392;41;3;1420;12925;4;1499;417;32;4;1160;18757;5;1208;203;31;5;0;0;0;0;0;0;0;0;6;2602;37013;4;1347;1296;596;571;35;7;3373;32137;4;3544;469;37;8;3310;31720;4;3473;467;36;9;1792;17513;4;1904;518;37
20.02.21;15:40:00;1;407;17626;0;2;2866;19587;4;3021;390;42;3;1550;12806;4;1632;416;33;4;1293;18660;5;1347;220;32;5;0;0;0;0;0;0;0;0;6;2913;36795;4;1515;1482;592;570;35;7;3712;31856;4;3899;470;37;8;3639;31444;4;3821;468;37;9;1975;17363;4;2096;517;37
20.02.21;15:35:00;1;612;17592;0;2;3047;19350;4;3213;389;42;3;1649;12678;4;1735;412;33;4;1442;18553;5;1502;229;33;5;0;0;0;0;0;0;0;0;6;3152;36552;4;1632;1593;593;568;35;7;3915;31547;4;4111;466;37;8;3848;31142;4;4034;464;37;9;2088;17199;4;2215;513;38
20.02.21;15:30:00;1;558;17543;0;2;3113;19097;4;3285;391;43;3;1681;12541;4;1767;414;33;4;1511;18434;5;1573;228;33;5;0;0;0;0;0;0;0;0;6;3272;36289;4;1680;1652;590;565;35;7;4013;31222;4;4214;466;38;8;3279;30823;4;3441;383;30;9;2150;17026;4;2277;508;38
20.02.21;15:25:00;1;409;17495;0;2;3213;18836;4;3388;396;43;3;1723;12400;4;1808;408;34;4;1683;18307;5;1753;233;34;5;0;0;0;0;0;0;0;0;6;3442;36014;4;1776;1734;586;563;35;7;4134;30887;4;4346;469;38;8;4068;30495;4;4267;460;37;9;2221;16846;4;2353;512;39
20.02.21;15:20:00;1;460;17461;0;2;3218;18568;4;3397;390;43;3;1723;12257;4;1814;407;34;4;1767;18168;5;1841;231;34;5;0;0;0;0;0;0;0;0;6;3516;35727;4;1801;1747;583;559;35;7;4174;30543;4;4387;465;38;8;4106;30155;4;4305;459;38;9;2242;16663;4;2374;510;39
20.02.21;15:15:00;1;461;17423;0;2;3342;18300;4;3516;386;44;3;1788;12113;4;1878;408;34;4;1958;18021;5;2039;235;35;5;0;0;0;0;0;0;0;0;6;3709;35432;4;1922;1878;581;557;36;7;4340;30196;4;4559;466;38;8;4267;29814;4;4478;459;38;9;2326;16475;4;2465;509;39
20.02.21;15:10:00;1;432;17384;0;2;3409;18022;4;3589;393;44;3;1861;11965;4;1955;416;35;4;2091;17859;5;2178;234;35;5;0;0;0;0;0;0;0;0;6;3864;35121;4;1982;1921;581;560;36;7;4470;29835;4;4691;462;38;8;4394;29459;4;4610;463;38;9;2402;16282;4;2545;509;39
20.02.21;15:05:00;1;381;17347;0;2;3456;17739;4;3647;390;44;3;1894;11810;4;1992;418;35;4;2220;17684;5;2313;236;36;5;0;0;0;0;0;0;0;0;6;4005;34799;4;2077;2017;584;559;36;7;4557;29463;4;4790;465;39;8;4495;29094;4;4714;462;38;9;2458;16081;4;2604;512;40
20.02.21;15:00:00;1;400;17315;0;2;3402;17451;4;3590;393;44;3;1879;11652;4;1979;426;35;4;2308;17499;5;2404;234;36;5;0;0;0;0;0;0;0;0;6;4022;34465;4;2079;2022;579;556;36;7;4519;29084;4;4745;459;39;8;4453;28719;4;4679;459;38;9;2438;15876;4;2578;508;40
20.02.21;14:55:00;1;387;17282;0;2;3454;17167;4;3643;390;44;3;1975;11495;4;2078;443;36;4;2415;17306;5;2516;234;37;5;0;0;0;0;0;0;0;0;6;4112;34129;4;2115;2057;579;556;36;7;4550;28706;4;4779;456;39;8;4489;28347;4;4711;458;39;9;2461;15672;4;2607;501;40
20.02.21;14:50:00;1;374;17249;0;2;3474;16880;4;3668;388;44;3;2084;11331;4;2198;466;37;4;2507;17105;5;2611;234;37;5;0;0;0;0;0;0;0;0;6;4200;33785;4;2191;2127;577;556;36;7;4528;28327;4;4759;454;39;8;4461;27973;4;4687;451;39;9;2449;15468;4;2598;507;40
20.02.21;14:45:00;1;350;17218;0;2;3466;16589;4;3652;385;44;3;2166;11157;4;2281;478;37;4;2588;16896;5;2696;234;37;5;0;0;0;0;0;0;0;0;6;4261;33435;4;2189;2136;575;554;36;7;4591;27948;4;4829;456;39;8;4546;27599;4;4769;458;39;9;2499;15263;4;2648;504;41
20.02.21;14:40:00;1;336;17188;0;2;3570;16301;4;3762;384;44;3;2290;10977;4;2412;489;37;4;2754;16681;5;2868;236;38;5;0;0;0;0;0;0;0;0;6;4444;33079;4;2310;2254;575;554;36;7;4750;27566;4;4987;455;40;8;4681;27227;4;4911;453;39;9;2571;15058;4;2722;500;41
20.02.21;14:35:00;1;337;17160;0;2;3717;16003;4;3916;383;44;3;2401;10786;4;2529;483;37;4;2957;16451;5;3080;232;38;5;0;0;0;0;0;0;0;0;6;4721;32703;4;2419;2365;574;555;36;7;4955;27170;4;5200;455;40;8;4885;26837;4;5134;454;39;9;2691;14846;4;2849;501;41
20.02.21;14:30:00;1;362;17132;0;2;3702;15694;4;3899;382;44;3;2390;10586;4;2520;488;37;4;3001;16206;5;3125;232;38;5;0;0;0;0;0;0;0;0;6;4760;32310;4;2451;2379;573;554;36;7;4960;26758;4;5216;451;40;8;4900;26428;4;5151;450;39;9;2696;14618;4;2854;506;41
20.02.21;14:25:00;1;444;17102;0;2;3717;15386;4;3919;383;44;3;2405;10387;4;2535;489;37;4;3096;15955;5;3225;233;39;5;0;0;0;0;0;0;0;0;6;4838;31913;4;2499;2433;572;555;36;7;5001;26344;4;5254;452;40;8;4933;26016;4;5184;452;39;9;2724;14392;4;2883;506;41
20.02.21;14:20:00;1;393;17063;0;2;3464;15075;4;3650;385;44;3;2238;10186;4;2362;490;37;4;2926;15698;5;3048;233;39;5;0;0;0;0;0;0;0;0;6;4569;31510;4;2370;2302;574;552;36;7;4705;25928;4;4941;458;40;8;4635;25604;4;4873;456;39;9;2572;14165;4;2720;504;41